sat.trackr.live / text

‹ back to catalog

ONEWEB-0719

NORAD 55179 · 2023-004AR

PAYLOAD ACTIVE UNKNOWN

§ Identity

Operator
Country
UK
Launch date
2023-01-10
Launch site
AFETR
Launch vehicle
Mass (kg)
RCS (m²)

Purposes: comms

External: N2YO · Heavens-Above · Gunter

§ Orbital elements

Epoch: 2026-05-25T02:32:11.832000Z

Period
109.29 min
Inclination
87.9162°
Eccentricity
0.0001936
Mean motion
13.17650064 rev/d
Perigee alt
1,192.2 km
Apogee alt
1,195.2 km
Semi-major
7,571.8 km
B*
1.0052e-4
RAAN
10.4249°
Arg perigee
79.2956°
Mean anomaly
280.8393°
Rev number
16,454

§ Raw data

ONEWEB-07191 55179U 23004AR  26145.10569250  .00000052  00000+0  10052-3 0  99992 55179  87.9162  10.4249 0001936  79.2956 280.8393 13.17650064164545

JSON: /api/v1/satellites/55179 · /tle

For live sub-satellite position, see the globe view (requires WebGL).

§ Visibility from observer

Set your observer location to see the next 7 days of passes ≥ 10°. The values pass through the URL so the page stays shareable.

No JS? Fill the form by hand. The geolocation button needs JavaScript.